Location: Aultman
(40.9284°N, 81.4173°W)
Time: 15:13:15
(UTC+00:00)

Meteor 2-1 Rocket - Pass Details

Date: 24 January 2021
Orbit: 827 x 910 km, 81.3° (Epoch: 01 March)

Event Time Altitude Azimuth Distance (km) Brightness Sun altitude
Rises 23:21:35 0° 352° (N) 3,398 7.2 -9.3°
Reaches altitude 10° 23:24:02 10° 355° (N) 2,452 6.5 -9.8°
Maximum altitude 23:29:33 69° 79° (E) 884 4.1 -10.8°
Drops below altitude 10° 23:35:00 10° 163° (SSE) 2,422 6.6 -11.8°
Sets 23:37:24 0° 166° (SSE) 3,353 7.3 -12.2°
